Terug naar catalogus

STARLINK-30166

ActiefCommunicatieVLEO
NORAD 57602·PAYLOAD·🇺🇸 United States

Gelanceerd Aug 11, 2023 vanaf Cape Canaveral Space Force Station

Loading…

Volgende Passages (komende 24 uur)

TLE

VersSource: CelesTrak SupGP

Epoch: Sep 15, 2026, 01:35 UTC

1 57602C 23119A   26258.06645833  .00021299  00000+0  77111-3 0  2584
2 57602  43.0010  91.8743 0001616 268.4647  15.3434 15.27582203    19

Volg STARLINK-30166 in realtime met AllMySat

Download on the App Store